Find Starlink 31683

NORAD ID: 59573 Int'l Des: 2024-076 Owner: SPXS Country: US Constellation: starlink operational
LEOCIRCULAR

現在のビュー

3D地球を読み込み中...

About Starlink 31683

Starlink 31683 (NORAD 59573) is a starlink constellation satellite (v2 mini) launched Apr 23, 2024 by SPXS of US. It operates in LEO, CIRCULAR orbit with a mass of 730.00 kg.

Starlink 31683について

説明を読み込み中...

次回通過

Passes for default location (London). Set your location on the main map for personalized predictions.

高度履歴

Loading altitude history...

軌道要素

1 59573U 24076K 26193.57479143 -.00000530 00000-0 -97270-5 0 9999
2 59573 43.0056 23.5931 0001611 277.2127 82.8542 15.27575561125606
Epoch: Jul 12, 2026 • Age: 7 hours

現在のステータス

高度 495.0 km
遠地点 / 近地点 N/A
速度 7.62 km/s
衛星直下点 -42.39°S, 54.92°E
打ち上げ日 Apr 23, 2024
運用期間 2.2 years
タイプ internet

技術仕様

分類 Payload
質量 730.00 kg
乾燥質量 700.00 kg
総質量 730.00 kg
長さ 0.30 m
直径 4.10 m
スパン 29.00 m
形状 Box + pan
製造者 SPXS
バスタイプ Starlink V2M
フェーズステータス In Orbit
所有者/国 SPXS/US

Most Searched